NB0X-13 Weather Reports


time (UTC)temp
C
wind
direction
speed
KPH
gust
KPH
rain 1hr
cm
rain 24hr
cm
rain mn
cm
humidity
%
barometer
mb
20260510174543 19 9 11.3 24.1 0.00 0.00 0.00 34 1023.8
20260510173533 19 2 8.0 17.7 0.00 0.00 0.00 34 1023.6
20260510172523 19 21 8.0 17.7 0.00 0.00 0.00 31 1023.6
20260510171614 19 21 6.4 12.9 0.00 0.00 0.00 29 1022.9
20260510170604 19 348 8.0 12.9 0.00 0.00 0.00 29 1022.9
20260510165615 19 57 3.2 9.7 0.00 0.00 0.00 29 1023.1
20260510164545 20 252 3.2 9.7 0.00 0.00 0.00 29 1023.1
20260510163534 19 237 4.8 11.3 0.00 0.00 0.00 30 1023.0
20260510162524 18 358 6.4 14.5 0.00 0.00 0.00 32 1022.4
20260510161615 18 41 4.8 11.3 0.00 0.00 0.00 32 1022.6
20260510160625 17 14 3.2 9.7 0.00 0.00 0.00 35 1022.8
20260510155555 16 19 3.2 6.4 0.00 0.00 0.00 37 1023.0
20260510154546 15 2 4.8 11.3 0.00 0.00 0.00 39 1023.2
20260510153536 15 5 9.7 12.9 0.00 0.00 0.00 40 1023.5
20260510152525 15 348 11.3 20.9 0.00 0.00 0.00 40 1023.7
20260510151616 14 3 9.7 16.1 0.00 0.00 0.00 41 1023.8
20260510150606 13 354 11.3 20.9 0.00 0.00 0.00 42 1023.8
20260510145556 13 6 14.5 27.4 0.00 0.00 0.00 42 1024.1
20260510144607 13 351 11.3 25.7 0.00 0.00 0.00 43 1024.3
20260510143536 13 351 12.9 24.1 0.00 0.00 0.00 43 1024.1
20260510142526 13 340 11.3 29.0 0.00 0.00 0.00 42 1023.9
20260510141516 13 348 9.7 27.4 0.00 0.00 0.00 41 1023.3
20260510140607 13 336 9.7 20.9 0.00 0.00 0.00 41 1023.2
20260510135557 13 341 8.0 24.1 0.00 0.00 0.00 40 1023.1
20260510134547 14 336 9.7 19.3 0.00 0.00 0.00 37 1023.1
20260510133537 15 340 12.9 27.4 0.00 0.00 0.00 35 1022.6
20260510132547 15 354 9.7 22.5 0.00 0.00 0.00 35 1022.5
20260510131517 14 336 8.0 22.5 0.00 0.00 0.00 35 1022.2
20260510130608 14 357 11.3 24.1 0.00 0.00 0.00 34 1021.8
20260510125558 14 12 14.5 27.4 0.00 0.00 0.00 34 1021.5
20260510124548 15 351 12.9 25.7 0.00 0.00 0.00 33 1021.4
20260510123538 15 343 14.5 27.4 0.00 0.00 0.00 32 1021.1
20260510122528 15 345 16.1 32.2 0.00 0.00 0.00 31 1020.9
20260510121518 14 342 14.5 30.6 0.00 0.00 0.00 30 1020.4
20260510120609 15 333 8.0 20.9 0.00 0.00 0.00 28 1019.8
20260510115559 14 328 4.8 14.5 0.00 0.00 0.00 28 1019.7
20260510114549 14 326 1.6 11.3 0.00 0.00 0.00 27 1019.5
20260510113539 14 6 6.4 14.5 0.00 0.00 0.00 26 1019.4
20260510112528 15 336 1.6 6.4 0.00 0.00 0.00 26 1019.3
20260510111518 15 350 1.6 9.7 0.00 0.00 0.00 25 1019.3
20260510110629 16 10 4.8 12.9 0.00 0.00 0.00 24 1019.1
20260510105600 15 269 3.2 8.0 0.00 0.00 0.00 24 1018.7
20260510104550 15 17 8.0 19.3 0.00 0.00 0.00 25 1018.7
20260510103539 16 192 4.8 8.0 0.00 0.00 0.00 22 1018.2
20260510102529 15 206 6.4 9.7 0.00 0.00 0.00 23 1018.3
20260510101519 15 159 1.6 4.8 0.00 0.00 0.00 25 1018.3
20260510100630 13 205 4.8 8.0 0.00 0.00 0.00 28 1018.4
20260510095601 10 155 3.2 4.8 0.00 0.00 0.00 35 1018.1
20260510094611 11 116 1.6 3.2 0.00 0.00 0.00 34 1018.0
20260510093601 11 155 0.0 3.2 0.00 0.00 0.00 33 1017.8
20260510092531 11 182 1.6 3.2 0.00 0.00 0.00 32 1018.0
20260510091521 12 224 3.2 6.4 0.00 0.00 0.00 31 1017.9
20260510090612 13 218 1.6 4.8 0.00 0.00 0.00 29 1017.8
20260510085602 15 225 1.6 3.2 0.00 0.00 0.00 26 1017.9
20260510084612 15 186 1.6 4.8 0.00 0.00 0.00 26 1017.7
20260510083542 15 165 3.2 8.0 0.00 0.00 0.00 25 1017.7
20260510082532 15 153 4.8 6.4 0.00 0.00 0.00 28 1017.7
20260510081522 15 106 0.0 3.2 0.00 0.00 0.00 27 1017.5
20260510080613 16 205 0.0 3.2 0.00 0.00 0.00 26 1017.7
20260510075644 17 199 3.2 4.8 0.00 0.00 0.00 25 1017.8
20260510074554 18 121 1.6 3.2 0.00 0.00 0.00 24 1017.6
20260510073543 19 154 1.6 6.4 0.00 0.00 0.00 23 1017.6
20260510072533 20 186 1.6 8.0 0.00 0.00 0.00 20 1017.8
20260510071523 20 190 3.2 8.0 0.00 0.00 0.00 20 1017.8
20260510070634 20 216 6.4 12.9 0.00 0.00 0.00 20 1017.9
20260510065605 19 219 4.8 11.3 0.00 0.00 0.00 22 1018.0
20260510064555 18 202 1.6 4.8 0.00 0.00 0.00 23 1018.1
20260510063544 20 235 1.6 14.5 0.00 0.00 0.00 22 1018.0
20260510062534 19 225 9.7 22.5 0.00 0.00 0.00 22 1017.9
20260510061525 18 197 4.8 11.3 0.00 0.00 0.00 23 1018.2
20260510060615 18 203 3.2 6.4 0.00 0.00 0.00 23 1018.3
20260510055605 18 182 3.2 6.4 0.00 0.00 0.00 23 1018.2
20260510054555 18 173 1.6 3.2 0.00 0.00 0.00 23 1018.3
20260510053545 19 203 3.2 6.4 0.00 0.00 0.00 22 1018.2
20260510052535 20 202 6.4 11.3 0.00 0.00 0.00 21 1018.2
20260510051525 20 203 6.4 14.5 0.00 0.00 0.00 21 1018.2
20260510050616 20 200 3.2 11.3 0.00 0.00 0.00 21 1018.3
20260510045606 20 215 4.8 14.5 0.00 0.00 0.00 20 1018.4
20260510044556 20 204 4.8 19.3 0.00 0.00 0.00 20 1018.4
20260510043546 20 216 9.7 17.7 0.00 0.00 0.00 20 1018.4
20260510042536 20 205 8.0 16.1 0.00 0.00 0.00 21 1018.3
20260510041526 20 209 9.7 17.7 0.00 0.00 0.00 21 1018.5
20260510040516 18 219 12.9 24.1 0.00 0.00 0.00 22 1018.6
20260510035607 14 217 4.8 11.3 0.00 0.00 0.00 26 1018.3
20260510034558 15 167 3.2 4.8 0.00 0.00 0.00 26 1018.1
20260510033607 15 158 3.2 4.8 0.00 0.00 0.00 25 1018.0
20260510032537 15 167 3.2 4.8 0.00 0.00 0.00 25 1017.9
20260510031547 15 176 1.6 4.8 0.00 0.00 0.00 24 1017.8
20260510030517 16 186 1.6 4.8 0.00 0.00 0.00 23 1017.7
20260510025608 17 223 3.2 4.8 0.00 0.00 0.00 21 1017.5
20260510024558 18 207 1.6 4.8 0.00 0.00 0.00 19 1017.4
20260510023548 19 180 1.6 4.8 0.00 0.00 0.00 19 1017.2
20260510022538 20 213 1.6 4.8 0.00 0.00 0.00 18 1017.2
20260510021528 20 215 1.6 6.4 0.00 0.00 0.00 17 1017.1
20260510020518 21 180 3.2 6.4 0.00 0.00 0.00 17 1017.0
20260510015609 21 204 4.8 8.0 0.00 0.00 0.00 16 1017.0
20260510014620 22 207 6.4 9.7 0.00 0.00 0.00 16 1016.7
20260510013549 22 213 8.0 14.5 0.00 0.00 0.00 15 1016.7
20260510012539 22 222 9.7 20.9 0.00 0.00 0.00 15 1016.7
20260510011529 23 229 8.0 12.9 0.00 0.00 0.00 15 1016.4
20260510010519 23 222 6.4 12.9 0.00 0.00 0.00 14 1016.5
20260510005610 23 248 6.4 11.3 0.00 0.00 0.00 14 1016.6
20260510004600 23 236 11.3 17.7 0.00 0.00 0.00 14 1016.5
20260510003550 24 228 9.7 20.9 0.00 0.00 0.00 14 1016.4
20260510002540 25 236 11.3 22.5 0.00 0.00 0.00 13 1016.3
20260510001529 25 262 6.4 14.5 0.00 0.00 0.00 13 1016.4
20260510000540 25 244 9.7 24.1 0.00 0.00 0.00 13 1016.6
20260509235611 26 249 6.4 24.1 0.00 0.00 0.00 13 1016.4
20260509234601 26 242 8.0 16.1 0.00 0.00 0.00 12 1016.5
20260509233551 25 322 3.2 9.7 0.00 0.00 0.00 13 1016.5
20260509232541 25 295 3.2 16.1 0.00 0.00 0.00 13 1016.6
20260509231531 26 239 9.7 19.3 0.00 0.00 0.00 13 1016.8
20260509230521 26 283 11.3 20.9 0.00 0.00 0.00 13 1016.6
20260509225613 25 241 6.4 20.9 0.00 0.00 0.00 12 1016.8
20260509224642 25 253 8.0 19.3 0.00 0.00 0.00 13 1017.0
20260509223612 26 241 11.3 27.4 0.00 0.00 0.00 13 1017.0
20260509222542 26 293 11.3 27.4 0.00 0.00 0.00 13 1017.1
20260509221552 25 344 6.4 17.7 0.00 0.00 0.00 13 1017.1
20260509220522 26 284 8.0 19.3 0.00 0.00 0.00 12 1017.3
20260509215613 26 299 6.4 14.5 0.00 0.00 0.00 12 1017.2
20260509214603 26 277 4.8 19.3 0.00 0.00 0.00 13 1017.3
20260509213553 26 287 8.0 16.1 0.00 0.00 0.00 13 1017.5
20260509212543 26 279 6.4 19.3 0.00 0.00 0.00 13 1017.6
20260509211533 25 244 11.3 22.5 0.00 0.00 0.00 13 1017.9
20260509210523 26 240 11.3 29.0 0.00 0.00 0.00 13 1018.0
20260509205614 26 284 8.0 20.9 0.00 0.00 0.00 13 1018.1
20260509204604 26 324 11.3 17.7 0.00 0.00 0.00 13 1018.1
20260509203554 26 252 9.7 24.1 0.00 0.00 0.00 13 1018.2
20260509202544 25 279 9.7 19.3 0.00 0.00 0.00 13 1018.4
20260509201554 25 329 11.3 32.2 0.00 0.00 0.00 13 1018.5
20260509200524 25 275 6.4 19.3 0.00 0.00 0.00 13 1018.7
20260509195616 25 307 8.0 17.7 0.00 0.00 0.00 13 1018.6
20260509194605 25 342 4.8 16.1 0.00 0.00 0.00 13 1018.8
20260509193555 26 257 11.3 22.5 0.00 0.00 0.00 13 1019.0
20260509192545 25 290 4.8 25.7 0.00 0.00 0.00 13 1018.9
20260509191535 25 247 6.4 19.3 0.00 0.00 0.00 13 1019.0
20260509190525 24 222 11.3 20.9 0.00 0.00 0.00 13 1018.9
20260509185616 25 292 4.8 12.9 0.00 0.00 0.00 14 1019.1
20260509184605 25 218 20.9 30.6 0.00 0.00 0.00 13 1019.2
20260509183636 25 246 8.0 19.3 0.00 0.00 0.00 13 1019.4
20260509182546 25 348 6.4 14.5 0.00 0.00 0.00 13 1019.5
20260509181556 25 255 9.7 19.3 0.00 0.00 0.00 14 1019.6
20260509180525 24 317 8.0 17.7 0.00 0.00 0.00 14 1019.7
20260509175556 24 338 9.7 20.9 0.00 0.00 0.00 15 1019.8